Location: Allisons_Woods
(35.8920°N, 81.8170°W)
Time: 04:52:31
(UTC-05:00)

Daily predictions for brighter satellites

Satellite Brightness Start Highest point End
(mag) Time Altitude Azimuth Time Altitude Azimuth Time Altitude Azimuth
CZ-3 R/B 4.4 04:30:21 43° SW 04:31:20 43° SW 04:42:24 10° SSE
Cosmos 2237 Rocket 4.1 04:56:09 19° S 04:56:09 19° S 04:57:36 10° S
SL-16 R/B 2.7 04:57:16 53° NE 04:57:35 54° ENE 05:03:06 10° SE
OAO 2 Rocket 4.4 04:59:36 40° ESE 04:59:36 40° ESE 05:02:47 10° E
Cosmos 2297 Rocket 4.3 05:05:23 15° N 05:05:23 15° N 05:06:16 10° N
Thor Agena Rocket 4.1 04:57:50 10° SSE 05:01:54 53° SE 05:01:54 53° SE
Cosmos 968 Rocket 4.1 05:06:47 52° NE 05:06:47 52° NE 05:10:50 10° NNE
ISS -0.2 05:09:16 15° E 05:09:16 15° E 05:10:03 10° ESE
USA 229 DEB 3.7 05:13:19 59° NW 05:14:54 86° WSW 05:22:10 10° SSE
USA 229 3.7 05:13:22 58° NW 05:15:00 87° WSW 05:22:16 10° SSE
Centaur AC-42 4.2 05:18:21 14° S 05:19:35 15° S 05:23:30 10° SE
Tsikada Rocket 3.8 05:19:15 66° NW 05:19:57 73° W 05:26:12 10° S
Cosmos 1271 Rocket 3.9 05:21:40 10° SSE 05:25:16 40° E 05:28:51 10° NNE
NOAA 6 3.9 05:25:28 10° NNE 05:30:42 89° ESE 05:35:53 10° SSW
Cosmos 2221 3.8 05:32:30 10° SSE 05:36:34 41° E 05:40:38 10° NNE
Cosmos 1340 Rocket 4.2 05:34:58 13° NNE 05:38:13 37° ENE 05:41:54 10° SSE
SL-14 R/B 3.6 05:41:34 28° N 05:43:37 68° E 05:47:38 10° SSE
Cosmos 1777 Rocket 3.9 05:40:45 10° SSW 05:45:58 86° ESE 05:51:12 10° NNE
BREEZE-M DEB (TANK) 4.1 05:49:40 32° SW 05:49:40 32° SW 05:51:54 10° S
ATLAS 3B CENTAUR R/B 4.4 05:47:24 10° SSW 05:52:39 31° SE 06:04:40 10° E
Tiangong 2 1.6 05:53:42 50° SSE 05:53:53 51° SSE 05:56:57 10° ENE
Meteor 2-1 Rocket 4.3 05:52:42 10° S 05:58:17 80° E 06:04:01 10° N
Cosmos 2263 Rocket 4.0 05:54:13 10° SSE 05:59:14 33° ESE 06:04:16 10° NE
ERBS 2.5 05:59:49 47° NNW 06:00:36 66° NE 06:03:58 10° SE
Cosmos 1603 4.0 05:56:13 10° NNW 06:01:51 68° ENE 06:07:28 10° SSE
Aureole 1 4.1 06:01:28 50° SW 06:02:10 76° WNW 06:05:39 10° NNE
Cosmos 2151 2.8 05:59:21 20° NNW 06:02:14 70° W 06:06:27 10° S
IUS-9 SRM-1 4.1 06:02:39 17° SW 06:04:54 22° SSW 06:07:09 10° SE
DELTA 2 R/B (1) 3.5 06:04:53 28° WSW 06:07:53 85° NNW 06:13:29 10° ENE
NOSS 3-1 (C) 4.1 06:01:36 13° NNW 06:08:42 89° WSW 06:17:08 10° SSE
COSMO-SKYMED 1 2.8 06:08:53 10° S 06:13:03 47° W 06:16:07 17° NNW
Cosmos 1538 Rocket 4.2 06:13:23 16° NNW 06:17:32 50° WSW 06:22:39 10° S
CZ-2C R/B 3.4 06:15:14 10° NNE 06:19:37 45° E 06:24:00 10° S
CSL-04 Rocket 3.5 06:15:36 10° N 06:20:54 80° WNW 06:26:10 10° SSW
IDEFIX/ARIANE 42P 3.6 06:15:52 10° NNE 06:20:59 50° E 06:26:05 10° S
EP 2 4.4 06:18:27 10° SSW 06:21:06 70° ESE 06:23:43 10° NE
Cosmos 1805 Rocket 3.6 06:17:40 10° N 06:22:06 81° E 06:26:28 10° S
CZ-4 R/B 2.2 06:20:13 10° NNE 06:24:14 54° E 06:28:17 10° S
Ariane Rocket 3.0 06:19:39 10° N 06:24:40 59° WNW 06:29:39 10° SSW
Cosmos 923 Rocket 4.1 06:19:51 10° NNW 06:25:07 82° ENE 06:30:23 10° SSE
Genesis I 3.1 06:24:37 18° NW 06:27:24 70° WSW 06:31:17 10° SSE
SL-8 R/B 4.4 06:25:32 16° NW 06:29:09 48° NNE 06:33:47 10° ESE
GPS 2-05 Rocket1 2.6 06:30:13 24° W 06:32:00 86° S 06:35:19 10° E
CZ-3 Stage 3 3.5 06:28:59 15° WSW 06:32:43 49° S 06:50:55 10° ESE
Cosmos 1680 Rocket 3.8 06:27:51 10° NNW 06:33:10 74° ENE 06:38:28 10° SSE
SL-16 R/B 3.6 06:39:13 15° WNW 06:41:10 18° W 06:44:46 10° SW
OAO 2 Rocket 3.8 06:38:34 15° W 06:42:28 47° SSW 06:47:10 10° SE
Sich 1 3.0 06:38:30 10° N 06:42:52 88° E 06:47:10 10° S
ISS -1.7 06:41:57 15° W 06:43:23 20° SW 06:45:49 10° S
Cosmos 2034 Rocket 4.1 06:41:49 10° SSW 06:47:50 55° W 06:53:58 10° N
Cosmos 1633 Rocket 3.0 06:43:40 10° N 06:48:02 88° E 06:52:22 10° S
Cosmos 1328 Rocket 3.8 06:43:52 10° S 06:48:09 72° E 06:52:29 10° NNE
Coronas F rocket 1.0 06:46:11 10° N 06:48:34 81° E 06:50:57 10° S
PAYLOAD A 4.0 06:44:08 10° N 06:48:59 55° WNW 06:53:39 10° SSW
MSX 4.4 06:46:41 10° NNE 06:52:26 64° ESE 06:58:08 10° S
Cosmos 389 Rocket 2.6 06:49:43 10° SSW 06:53:20 59° W 06:56:58 10° N
Nadezhda 4 Rocket 4.0 06:47:53 10° N 06:54:14 84° W 07:00:30 10° S
Cosmos 1703 3.9 06:51:29 10° NNW 06:55:03 35° W 06:58:39 10° SSW
Cosmos 1515 Rocket 4.1 06:52:33 10° S 06:56:54 66° E 07:01:18 10° NNE
Cosmos 1151 Rocket 4.3 06:56:01 10° SSE 07:00:06 45° E 07:04:11 10° NNE
Gbstr 26 Del rocket 3.8 06:55:36 10° WSW 07:00:57 72° NW 07:07:40 10° NE
Cosmos 2344 3.6 06:55:30 10° SW 07:03:10 73° WNW 07:11:36 10° NNE
Cosmos 1626 2.8 07:00:24 10° NNW 07:03:48 34° W 07:07:10 10° SSW
CZ-4 R/B 4.5 07:00:42 10° NNE 07:04:49 87° E 07:08:56 10° SSW
PSLV R/B 4.3 07:01:50 10° WNW 07:04:57 32° N 07:08:00 10° ENE
Cosmos 2058 4.5 07:02:31 10° NW 07:05:03 16° W 07:07:34 10° SW
Cosmos 1937 Rocket 4.0 07:00:11 10° S 07:05:16 65° ESE 07:10:21 10° NNE
Cosmos 2298 Rocket 4.1 07:02:31 10° SSW 07:07:49 88° WNW 07:13:09 10° NNE
Cosmos 2112 Rocket 4.1 07:03:11 10° NNW 07:08:28 60° WSW 07:13:42 10° S
MOS 1 4.3 07:03:05 10° NNE 07:08:49 80° WNW 07:14:29 10° SSW
Atlas 2A Centaur Rocket 3.5 07:07:41 10° SW 07:08:52 12° S 07:09:52 10° SSE
YAOGAN 1 2.6 07:04:42 10° N 07:09:00 65° WNW 07:13:16 10° SSW
Cosmos 1092 Rocket 4.0 07:06:42 10° N 07:13:00 83° W 07:19:12 10° S
